Location: Spring Creek
(38.2870°N, 100.2160°W)
Time: 03:09:45
(UTC+00:00)

CZ-4C R/B - Pass Details

Date: 08 May 2021
Orbit: 609 x 1393 km, 63.4° (Epoch: 22 June)

Event Time Altitude Azimuth Distance (km) Brightness Sun altitude
Rises 04:53:30 0° 327° (NNW) 3,912 6.9 -29.4°
Reaches altitude 10° 04:56:01 10° 329° (NNW) 3,053 6.0 -29.7°
Maximum altitude 05:03:34 81° 57° (ENE) 1,309 3.0 -30.4°
Enters shadow 05:04:43 68° 123° (ESE) 1,393 3.0 -30.5°
